Waarnemingen

Advertentie
Mijn weer
Cap Bear, Frankrijk (7749): temperatuur & dauwpunt: 18.02.2017 09:00:00 - 24.02.2017 09:00:00 (CET)Cap Bear, Frankrijk (7749): windsnelheid & windstoten: 18.02.2017 09:00:00 - 24.02.2017 09:00:00 (CET)Cap Bear, Frankrijk (7749): windrichting: 18.02.2017 09:00:00 - 24.02.2017 09:00:00 (CET)Cap Bear, Frankrijk (7749): luchtdruk: 18.02.2017 09:00:00 - 24.02.2017 09:00:00 (CET)Cap Bear, Frankrijk (7749): zicht: 18.02.2017 09:00:00 - 24.02.2017 09:00:00 (CET)Cap Bear, Frankrijk (7749): neerslag: 18.02.2017 09:00:00 - 24.02.2017 09:00:00 (CET)
Datum & Tijd tt [°C] td [°C] ff [km/u] ff [kn] fx [km/u] fx [kn] dd ppp [hPa] vv [km] rr [mm]
24.02.2017 09:00:00 11,9 8,9 40 22 66 36 NW 1012,8 - 0,0
24.02.2017 08:00:00 12,3 8,0 54 29 74 40 NW 1012,8 - 0,0
24.02.2017 07:00:00 12,6 7,9 46 25 73 39 NW 1012,1 - 0,0
24.02.2017 06:00:00 12,7 8,6 37 20 56 30 NW 1012,8 - 0,0
24.02.2017 05:00:00 12,6 8,9 42 23 56 30 NW 1012,3 - 0,0
24.02.2017 04:00:00 12,8 8,7 33 18 59 32 NW 1012,9 12 0,0
24.02.2017 03:00:00 13,2 8,7 42 23 69 37 NW 1013,2 - 0,0
24.02.2017 02:00:00 13,2 9,1 39 21 65 35 NW 1013,6 - 0,0
24.02.2017 01:00:00 12,9 9,5 52 28 61 33 NW 1013,8 - 0,0
24.02.2017 00:00:00 12,6 9,4 39 21 59 32 NW 1013,9 - 0,0
23.02.2017 23:00:00 11,6 11,4 22 12 26 14 NNW 1014,0 - 0,0
23.02.2017 22:00:00 11,2 11,2 7 4 14 7 NW 1014,2 - 0,0
23.02.2017 21:00:00 11,7 11,7 4 2 14 8 ONO 1013,5 - 0,0
23.02.2017 20:00:00 10,9 10,9 7 4 18 10 Z 1013,6 - 0,0
23.02.2017 19:00:00 10,9 10,9 13 7 23 13 NW 1013,1 - 0,0
23.02.2017 18:00:00 11,0 11,0 19 11 23 12 NNW 1013,0 - 0,0
23.02.2017 17:00:00 10,8 10,8 23 13 32 17 NNW 1012,8 - 0,0
23.02.2017 16:00:00 11,0 11,0 10 5 14 8 NNW 1013,8 - 0,0
23.02.2017 15:00:00 11,0 11,0 15 8 19 10 NNW 1014,4 - 0,0
23.02.2017 14:00:00 11,1 11,1 11 6 18 10 NNW 1014,9 - 0,0
23.02.2017 13:00:00 11,5 11,5 15 8 21 12 N 1015,7 0,1 0,0
23.02.2017 12:00:00 11,8 11,3 15 8 21 12 N 1016,4 - 0,0
23.02.2017 11:00:00 11,3 10,0 16 9 29 16 NNW 1016,4 - 0,0
23.02.2017 10:00:00 11,3 8,9 28 15 40 21 NNW 1015,7 - 0,0
23.02.2017 09:00:00 11,6 6,5 32 17 39 21 NNW 1015,8 - 0,0
23.02.2017 08:00:00 9,4 8,6 19 11 29 16 NW 1015,6 - 0,0
23.02.2017 07:00:00 12,3 9,5 29 16 39 21 NNW 1015,1 - 0,0
23.02.2017 06:00:00 11,5 8,7 34 19 46 25 NW 1015,3 - 0,0
23.02.2017 05:00:00 10,5 7,0 37 20 41 22 NW 1015,4 - 0,0
23.02.2017 04:00:00 11,0 6,9 19 10 23 12 NW 1015,9 18 0,0
23.02.2017 03:00:00 11,7 8,2 6 3 10 5 N 1016,8 - 0,0
23.02.2017 02:00:00 12,1 7,4 6 3 16 9 N 1017,3 - 0,0
23.02.2017 01:00:00 13,8 8,8 11 6 17 9 ZO 1017,8 - 0,0
23.02.2017 00:00:00 14,5 9,3 14 7 19 10 ZZO 1018,3 - 0,0
22.02.2017 23:00:00 14,4 6,2 9 5 12 6 Z 1018,7 - 0,0
22.02.2017 22:00:00 14,7 9,9 5 3 12 7 ZZW 1019,1 - 0,0
22.02.2017 21:00:00 15,6 8,8 8 4 10 5 NW 1019,0 - 0,0
22.02.2017 20:00:00 14,8 10,0 6 3 13 7 NNW 1019,1 - 0,0
22.02.2017 19:00:00 15,3 11,5 14 7 16 9 Z 1018,8 - 0,0
22.02.2017 18:00:00 13,9 12,1 12 7 13 7 ZZO 1018,7 - 0,0
22.02.2017 17:00:00 14,8 11,6 12 7 18 10 Z 1019,0 - 0,0
22.02.2017 16:00:00 15,1 11,3 10 5 14 8 ZZO 1019,4 - 0,0
22.02.2017 15:00:00 15,7 10,9 6 3 11 6 ZZO 1020,0 - 0,0
22.02.2017 14:00:00 14,7 10,1 9 5 22 12 ZZW 1020,6 - 0,0
22.02.2017 13:00:00 14,5 11,5 14 7 20 11 ZZO 1021,7 25 0,0
22.02.2017 12:00:00 15,1 9,0 8 4 11 6 ZO 1022,3 - 0,0
22.02.2017 11:00:00 14,9 8,1 4 2 10 5 ZO 1022,5 - 0,0
22.02.2017 10:00:00 14,2 9,0 2 1 16 8 NO 1022,6 - 0,0
22.02.2017 09:00:00 10,6 8,9 5 3 14 8 NW 1022,6 - 0,0
22.02.2017 08:00:00 9,3 8,4 11 6 29 15 NW 1022,2 - 0,0
22.02.2017 07:00:00 12,0 7,1 25 14 46 25 NW 1021,6 25 0,0
22.02.2017 06:00:00 11,8 7,5 31 17 41 22 NW 1021,7 - 0,0
22.02.2017 05:00:00 12,2 7,7 32 18 46 25 NW 1022,0 - 0,0
22.02.2017 04:00:00 12,2 7,3 33 18 42 23 NW 1021,9 - 0,0
22.02.2017 03:00:00 12,4 7,7 29 16 39 21 NW 1022,1 - 0,0
22.02.2017 02:00:00 12,6 7,9 24 13 42 23 NW 1022,5 - 0,0
22.02.2017 01:00:00 12,9 8,0 26 14 46 25 NW 1022,5 - 0,0
22.02.2017 00:00:00 13,0 9,3 38 20 53 28 NW 1022,3 - 0,0
21.02.2017 23:00:00 13,0 9,6 39 21 49 27 NW 1022,2 - 0,0
21.02.2017 22:00:00 13,4 8,9 39 21 60 33 NW 1022,4 - 0,0
21.02.2017 21:00:00 14,1 9,5 44 24 61 33 NW 1021,7 - 0,0
21.02.2017 20:00:00 15,0 8,2 35 19 51 28 NW 1021,7 - 0,0
21.02.2017 19:00:00 14,4 8,6 4 2 14 8 ZZW 1021,9 25 0,0
21.02.2017 18:00:00 14,1 9,1 13 7 19 10 ZZO 1021,5 - 0,0
21.02.2017 17:00:00 16,3 9,9 9 5 26 14 N 1021,3 - 0,0
21.02.2017 16:00:00 18,0 9,3 22 12 42 23 NNW 1021,3 - 0,0
21.02.2017 15:00:00 17,9 8,2 29 15 46 25 NW 1021,7 - 0,0
21.02.2017 14:00:00 16,6 8,3 32 17 49 26 NW 1022,5 - 0,0
21.02.2017 13:00:00 15,6 8,3 42 23 53 29 NW 1023,4 - 0,0
21.02.2017 12:00:00 14,5 8,7 39 21 58 31 NNW 1024,3 - 0,0
21.02.2017 11:00:00 14,2 7,3 35 19 59 32 NW 1024,3 - 0,0
21.02.2017 10:00:00 13,2 6,8 36 20 57 31 NW 1024,3 25 0,0
21.02.2017 09:00:00 12,3 6,3 36 19 54 29 NW 1024,0 - 0,0
21.02.2017 08:00:00 12,3 5,7 32 17 61 33 NW 1023,9 - 0,0
21.02.2017 07:00:00 11,4 5,7 43 23 61 33 WNW 1023,8 - 0,0
21.02.2017 06:00:00 10,7 4,8 39 21 62 33 NW 1024,2 - 0,0
21.02.2017 05:00:00 10,9 5,8 41 22 54 29 NW 1024,4 - 0,0
21.02.2017 04:00:00 10,7 5,0 32 17 53 28 NW 1024,7 - 0,0
21.02.2017 03:00:00 10,8 4,7 31 17 52 28 NW 1025,0 - 0,0
21.02.2017 02:00:00 10,9 5,8 38 21 55 30 NW 1025,2 - 0,0
21.02.2017 01:00:00 11,1 5,0 35 19 56 31 NW 1024,8 - 0,0
21.02.2017 00:00:00 11,1 5,6 35 19 55 30 NW 1025,0 - 0,0
20.02.2017 23:00:00 11,1 5,6 34 19 57 31 NW 1025,4 - 0,0
20.02.2017 22:00:00 11,1 5,6 32 18 57 31 NW 1025,2 - 0,0
20.02.2017 21:00:00 11,8 5,9 42 23 60 33 NW 1024,7 - 0,0
20.02.2017 20:00:00 12,3 5,9 36 19 62 33 NW 1024,3 - 0,0
20.02.2017 19:00:00 13,3 5,9 35 19 52 28 NW 1024,0 - 0,0
20.02.2017 18:00:00 12,9 8,0 47 26 52 28 N 1023,4 - 0,0
20.02.2017 17:00:00 13,4 8,7 41 22 46 25 N 1023,5 - 0,0
20.02.2017 16:00:00 15,5 9,2 33 18 41 22 N 1023,6 - 0,0
20.02.2017 15:00:00 14,7 9,1 22 12 31 17 N 1024,2 - 0,0
20.02.2017 14:00:00 14,8 8,7 27 15 42 23 N 1024,7 - 0,0
20.02.2017 13:00:00 14,5 5,3 28 15 57 31 NW 1025,7 25 0,0
20.02.2017 12:00:00 13,6 5,0 36 19 54 29 NW 1026,0 - 0,0
20.02.2017 11:00:00 12,7 5,6 36 19 49 26 NW 1026,2 - 0,0
20.02.2017 10:00:00 11,6 6,1 33 18 46 25 NW 1026,2 - 0,0
20.02.2017 09:00:00 10,9 6,2 30 16 50 27 NW 1025,9 - 0,0
20.02.2017 08:00:00 10,6 6,2 32 17 56 30 NW 1025,6 - 0,0
20.02.2017 07:00:00 10,6 6,2 37 20 57 31 NW 1025,2 - 0,0
20.02.2017 06:00:00 11,0 6,3 36 19 53 28 NW 1024,9 - 0,0
20.02.2017 05:00:00 11,3 6,6 36 19 53 29 NW 1024,6 - 0,0
20.02.2017 04:00:00 11,1 7,0 38 20 50 27 NW 1024,9 - 0,0
20.02.2017 03:00:00 10,9 7,2 40 21 61 33 NNW 1025,4 - 0,0
20.02.2017 02:00:00 10,9 7,0 39 21 56 30 NW 1025,4 - 0,0
20.02.2017 01:00:00 11,1 8,3 41 22 63 34 NNW 1025,3 - 0,0
20.02.2017 00:00:00 12,1 7,2 39 21 53 29 NW 1025,5 - 0,0
19.02.2017 23:00:00 11,9 7,0 35 19 57 31 NW 1025,5 - 0,0
19.02.2017 22:00:00 12,1 6,6 39 21 57 31 NW 1025,4 - 0,0
19.02.2017 21:00:00 12,0 6,1 32 17 52 28 NW 1025,5 - 0,0
19.02.2017 20:00:00 10,8 8,9 27 15 41 22 NW 1025,5 - 0,0
19.02.2017 19:00:00 11,6 10,0 7 4 8 4 NW 1025,6 - 0,0
19.02.2017 18:00:00 11,7 10,3 4 2 12 7 NW 1025,3 - 0,0
19.02.2017 17:00:00 11,9 11,0 6 4 10 5 Z 1025,2 - 0,0
19.02.2017 16:00:00 12,8 11,0 4 2 9 5 OZO 1025,4 - 0,0
19.02.2017 15:00:00 13,5 11,2 6 3 12 6 NO 1025,7 - 0,0
19.02.2017 14:00:00 12,1 11,2 6 3 12 6 N 1026,2 - 0,0
19.02.2017 13:00:00 12,3 10,0 7 4 18 10 N 1027,1 15 0,0
19.02.2017 12:00:00 11,4 9,3 17 9 24 13 NNW 1027,7 - 0,0
19.02.2017 11:00:00 11,3 8,3 22 12 29 16 NW 1027,7 - 0,0
19.02.2017 10:00:00 10,7 7,6 22 12 30 16 NW 1027,2 20 0,0
19.02.2017 09:00:00 8,9 8,1 24 13 28 15 NW 1026,9 - 0,0
19.02.2017 08:00:00 10,0 7,6 23 13 29 16 NW 1026,2 - 0,0
19.02.2017 07:00:00 9,7 7,5 22 12 25 13 NW 1025,6 20 0,0
19.02.2017 06:00:00 10,0 7,2 22 12 27 15 NW 1025,2 - 0,0
19.02.2017 05:00:00 10,3 7,2 23 13 27 14 NW 1024,8 - 0,0
19.02.2017 04:00:00 10,6 7,1 22 12 25 13 NW 1024,5 - 0,0
19.02.2017 03:00:00 10,5 6,1 23 12 29 15 NW 1024,5 - 0,0
19.02.2017 02:00:00 9,6 7,2 22 12 30 16 NW 1024,3 - 0,0
19.02.2017 01:00:00 10,8 7,5 24 13 31 17 NW 1024,0 - 0,0
19.02.2017 00:00:00 10,6 5,6 25 13 29 15 NW 1023,8 - 0,0
18.02.2017 23:00:00 10,5 6,1 24 13 29 16 NW 1023,7 - 0,0
18.02.2017 22:00:00 10,5 5,5 22 12 30 16 NW 1023,3 - 0,0
18.02.2017 21:00:00 9,9 5,7 23 12 27 14 NW 1022,9 - 0,0
18.02.2017 20:00:00 10,2 7,1 19 11 25 14 NNW 1022,8 - 0,0
18.02.2017 19:00:00 10,4 7,1 17 9 20 11 N 1022,4 - 0,0
18.02.2017 18:00:00 10,7 7,0 14 7 17 9 NNW 1022,1 - 0,0
18.02.2017 17:00:00 11,2 6,5 12 7 16 8 NNW 1021,8 - 0,0
18.02.2017 16:00:00 12,8 8,3 9 5 10 6 NNO 1021,8 - 0,0
18.02.2017 15:00:00 11,7 6,8 4 2 29 16 N 1021,8 - 0,0
18.02.2017 14:00:00 12,5 7,4 21 12 34 18 ONO 1022,3 - 0,0
18.02.2017 13:00:00 14,0 10,6 6 4 14 8 ONO 1022,8 - 0,0
18.02.2017 12:00:00 12,8 10,0 10 5 16 9 ONO 1023,3 - 0,0
18.02.2017 11:00:00 11,9 9,8 7 4 12 6 OZO 1023,3 - 0,0
18.02.2017 10:00:00 12,0 8,5 11 6 12 7 ZO 1023,1 - 0,0
18.02.2017 09:00:00 11,2 7,5 6 3 8 5 Z 1023,0 - 0,0

tt = temperatuur
td = dauwpunt
ff = windsnelheid
fx = windstoten
dd = windrichting
ppp = luchtdruk
vv = zicht
rr = neerslag

Weerstations in de omgeving